Location: Recife
(8.0585°S, 34.8848°W)
Time: 21:00:08
(UTC-03:00)

Explorer 11/Cluster Stage 4 - Pass Details

Date: 22 April 2026
Orbit: 463 x 1174 km, 28.8° (Epoch: 16 May)

Event Time Altitude Azimuth Distance (km) Brightness Sun altitude
Rises 02:16:04 0° 233° (SW) 2,499 - -46.1°
Reaches altitude 10° 02:18:18 10° 226° (SW) 1,605 - -45.5°
Maximum altitude 02:21:46 45° 152° (SSE) 638 - -44.7°
Drops below altitude 10° 02:25:23 10° 77° (ENE) 1,670 - -43.8°
Exits shadow 02:27:27 - 71° (ENE) 2,498 9.9 -43.3°
Sets 02:27:44 0° 71° (ENE) 2,615 10.1 -43.2°
